Tracking 29782 objects as of 13-Oct-2024
HD Live streaming from Space Station
objects crossing your sky now

COSMOS 1823 DEB

Track COSMOS 1823 DEB now!
10-day predictions


NORAD ID: 18751
Int'l Code: 1987-020AC
Perigee: 1,483.0 km
Apogee: 1,604.5 km
Inclination: 73.6 °
Period: 116.8 minutes
Semi major axis: 7914 km
RCS: 0.1997 m2 (medium)
Launch date: February 20, 1987
Source: Commonwealth of Independent States (former USSR) (CIS)
Launch site: PLESETSK MISSILE AND SPACE COMPLEX (PKMTR)

Note: This is SATELLITE DEBRIS
Your satellite tracking list
Your tracking list is empty




NASA's NSSDC Master Catalog

Two Line Element Set (TLE):
1 18751U 87020AC  24286.52178334  .00000154  00000-0  13915-2 0  9995
2 18751  73.6264 106.7954 0076769 303.5431  85.3666 12.32949748656716
Source of the keplerian elements: AFSPC